Regional Weather Roundup
Issued by NWS

Home | Current Version | Previous Version | Text Only | Print | Product List | Glossary Off
Versions: 1 2 3 4 5 6 7 8 9 10 11 12 13 14 15 16 17 18 19 20 21 22 23 24 25 26 27 28 29 30 31 32 33 34 35 36 37 38 39 40 41 42 43 44 45 46 47 48 49 50

000
ASUS43 KMPX 061910
RWRMN
WEATHER ROUNDUP FOR MINNESOTA
NATIONAL WEATHER SERVICE TWIN CITIES/CHANHASSEN MN
100 PM CST SAT FEB 06 2016


NOTE: "FAIR" INDICATES FEW OR NO CLOUDS BELOW 12,000 FEET WITH NO
SIGNIFICANT WEATHER AND/OR OBSTRUCTIONS TO VISIBILITY. N/A MEANS
CURRENT SKY AND/OR WEATHER CONDITIONS ARE NOT AVAILABLE.

MNZ060>063-068>070-062000-
   Twin Cities Metro

CITY           SKY/WX    TMP DP  RH WIND       PRES   REMARKS
TWIN CITIES    CLOUDY    35  25  66 S15G21    30.01F WCI  25
ST PAUL        PTSUNNY   32  25  75 S17       30.02F WCI  21
CRYSTAL        MOSUNNY   34  25  69 S16       29.98F WCI  24
BLAINE         CLOUDY    36  27  69 S16       29.98F
LAKEVILLE      MOSUNNY   30  27  86 S14       30.01F WCI  20
EDEN PRAIRIE   CLOUDY    33  26  75 S16       29.99F WCI  23
SOUTH ST PAUL  PTSUNNY   33  26  76 S8        30.02F WCI  26
LAKE ELMO      FAIR      32  27  80 S16       30.02F WCI  21
$$
MNZ001>005-007-008-013>017-022>024-027-028-062000-
   Northwest Minnesota

CITY           SKY/WX    TMP DP  RH WIND       PRES   REMARKS
BEMIDJI        CLOUDY    32  25  74 SE9       29.75F WCI  24
HALLOCK        CLOUDY    30  27  86 S17       29.68F WCI  18
ROSEAU         CLOUDY    30  25  80 SE14      29.70F WCI  20
WARROAD        CLOUDY    30  25  80 CALM      29.72F
THIEF RVR FALL CLOUDY    30  25  80 S13       29.73F WCI  20
CROOKSTON      MOSUNNY   32  27  80 S16       29.73F WCI  21
FOSSTON        CLOUDY    30  25  80 S15G23    29.74F WCI  19
DETROIT LAKES  CLOUDY    36  27  69 SW10G21   29.78F
MOORHEAD       MOSUNNY   36  28  75 S12       29.77F
PARK RAPIDS    CLOUDY    36  25  64 S12       29.77F
MAHNOMEN       MOCLDY    33  27  80 S18       29.74F WCI  21
$$
MNZ006-009>011-018-025>026-062000-
   North Central Minnesota

CITY           SKY/WX    TMP DP  RH WIND       PRES   REMARKS
BAUDETTE       CLOUDY    31  21  66 S13       29.73F WCI  21
FLAG ISLAND    CLOUDY    27  19  74 SE8       29.73F WCI  18
INTL FALLS     CLOUDY    28  20  71 SE9       29.78F WCI  19
WASKISH        CLOUDY    36  25  64 SE6       29.75F
LONGVILLE      MOSUNNY   36  25  64 S10       29.81F
GRAND RAPIDS   CLOUDY    34  23  64 S15       29.82F WCI  24
CRANE LAKE     CLOUDY    27  19  74 SE2       29.86F
ORR            CLOUDY    30  19  64 CALM      29.78F
COOK           CLOUDY    28  21  74 SE7       29.83F WCI  21
WALKER         CLOUDY    34  23  65 S6        29.78F WCI  29
$$
MNZ012-019>021-037-062000-
   Northeast Minnesota

CITY           SKY/WX    TMP DP  RH WIND       PRES   REMARKS
DULUTH         CLOUDY    30  22  72 S12       29.87F WCI  20
ELY            CLOUDY    28  19  69 S5        29.84F WCI  23
HIBBING        CLOUDY    29  21  72 S9        29.83F WCI  20
EVELETH        CLOUDY    32  23  69 S10       29.84F WCI  24
DULUTH HARBOR  CLOUDY    34  25  69 S14       29.92F WCI  24
TWO HARBORS    CLOUDY    30  23  74 S10       29.89F WCI  21
SILVER BAY     CLOUDY    30  21  69 S9        29.89F WCI  22
GRAND MARAIS     N/A     29  24  82 W8        29.95F WCI  21
G MARAIS ARPRT CLOUDY    25  16  68 S7        29.88F WCI  17
$$
MNZ029>031-032-039>041-046>048-054>057-064-062000-
   West Central Minnesota

CITY           SKY/WX    TMP DP  RH WIND       PRES   REMARKS
FERGUS FALLS   CLOUDY    36  28  75 S12       29.83F
WHEATON        CLOUDY    39  30  70 SW10      29.83F
MORRIS         CLOUDY    37  28  70 S14       29.83F
ALEXANDRIA     CLOUDY    37  24  59 SW17G25   29.84F
ELBOW LAKE     FAIR      35  28  76 SW14      29.83F HAZE    WCI  26
WADENA         CLOUDY    36  25  64 S14       29.80F
GLENWOOD       CLOUDY    36  27  69 S17       29.86F
APPLETON       CLOUDY    39  27  60 SW10      29.86F
BENSON         MOSUNNY   37  27  65 SW10      29.87F
ORTONVILLE     MOSUNNY   39  25  56 SW10G16   29.83F
MADISON        MOSUNNY   41  25  52 SW22      29.86F
WILLMAR        FAIR      37  28  70 S5        29.92F
$$
MNZ033>034-036-042>043-049>051-058-059-062000-
   Central Minnesota

CITY           SKY/WX    TMP DP  RH WIND       PRES   REMARKS
ST CLOUD       MOSUNNY   33  24  69 S13G23    29.91F WCI  24
SAUK CENTRE    FAIR      36  26  69 S13       29.86F
PAYNESVILLE    CLOUDY    37  27  67 S15G21    29.90F
AITKIN         CLOUDY    36  23  60 S12G18    29.84F
PINE RIVER     CLOUDY    34  25  69 S8        29.86F WCI  27
BRAINERD       CLOUDY    33  23  66 S15       29.86F WCI  23
STAPLES        CLOUDY    36  25  64 S10       29.82F
LONG PRAIRIE   CLOUDY    34  27  75 S14       29.86F WCI  24
LITTLE FALLS   CLOUDY    34  25  69 S12       29.89F WCI  25
LITCHFIELD     SUNNY     37  28  70 S8        29.93F
BUFFALO        MOSUNNY   34  25  71 S9        29.97F WCI  26
MAPLE LAKE     MOSUNNY   36  27  71 S8G16     29.95F
$$
MNZ037-044-045-052-053-062000-
   East Central Minnesota

CITY           SKY/WX    TMP DP  RH WIND       PRES   REMARKS
PRINCETON      MOSUNNY   34  25  69 S12       29.94F WCI  25
MORA           CLOUDY    34  27  75 S14G20    29.94F WCI  24
CAMBRIDGE      CLOUDY    36  25  64 S15       29.93F
RUSH CITY      CLOUDY    33  25  73 S13       29.96F WCI  24
MOOSE LAKE     CLOUDY    34  25  69 S15       29.89F WCI  24
HINCKLEY       FAIR      32  27  80 S15       29.93F WCI  22
CLOQUET        CLOUDY    30  23  74 S13       29.88F WCI  20
MCGREGOR       CLOUDY    36  27  69 S13       29.87F
$$
MNZ071>073-080-081-089-090-097-098-062000-
   Southwest Minnesota

CITY           SKY/WX    TMP DP  RH WIND       PRES   REMARKS
MONTEVIDEO     CLOUDY    39  27  60 SW16      29.91F
GRANITE FALLS  CLOUDY    38  29  68 S18       29.93F
CANBY          CLOUDY    42  29  61 SW23G31   29.89F
MARSHALL       MOSUNNY   37  24  59 SW23G31   29.90F
REDWOOD FALLS  MOSUNNY   34  26  72 SW18      29.95F WCI  23
OLIVIA         MOSUNNY   36  30  80 SW17      29.93F
PIPESTONE        N/A     34  21  60 SW17      29.95F WCI  23
WINDOM         CLOUDY    32  27  80 S18       29.99F WCI  20
WORTHINGTON    CLOUDY    28  23  80 SW20      30.01F WCI  15
JACKSON        SUNNY     32  27  80 S18G25    30.02F WCI  20
TRACY          CLOUDY    35  25  68 SW24G32   29.94F WCI  23
SLAYTON        CLOUDY    30  26  83 S16       29.97F WCI  19
$$
MNZ065>067-074>077-082>085-091>093-062000-
   South Central Minnesota

CITY           SKY/WX    TMP DP  RH WIND       PRES   REMARKS
MANKATO        MOSUNNY   32  25  74 S16       30.03F WCI  21
NEW ULM        CLOUDY    34  27  75 S15       29.99F WCI  24
ST JAMES       CLOUDY    34  28  80 S14       30.02F WCI  24
FAIRMONT       SUNNY     30  25  80 SW16      30.04F WCI  19
GLENCOE        CLOUDY    35  29  80 S13       29.97F WCI  26
FARIBAULT      CLOUDY    34  27  75 S8        30.04F WCI  27
OWATONNA       CLOUDY    30  27  86 S17       30.04F WCI  18
WASECA         CLOUDY    30  28  93 S16       30.06F FOG     WCI  19
ALBERT LEA     CLOUDY    30  28  93 S8        30.07F WCI  23
$$
MNZ078>079-086>088-094>096-062000-
   Southeast Minnesota

CITY           SKY/WX    TMP DP  RH WIND       PRES   REMARKS
ROCHESTER      CLOUDY    27  24  89 S16       30.08F FOG     WCI  15
RED WING       SUNNY     32  25  74 S10       30.06F WCI  24
STANTON        CLOUDY    32  27  80 S13       30.03F WCI  22
DODGE CENTER   CLOUDY    28  27  93 SW14      30.06F FOG     WCI  17
WINONA         SUNNY     34  27  75 S3        30.12F
AUSTIN         CLOUDY    28  27  93 SW14      30.09F FOG     WCI  17
PRESTON        CLOUDY    27  24  89 SW12      30.10F FOG     WCI  17
$$
ABBREVIATIONS USED IN REMARKS
   TC - TEMPERATURES IN CELSIUS
  WCI - WIND CHILL INDEX
   HX - HEAT INDEX
  VSB - VISIBILITY
$$



USA.gov is the U.S. government's official web portal to all federal, state and local government web resources and services.